Flag for U.S.A. Weather past 2 weeks in Bridgeport, Connecticut, U.S.A.

Now
72 °F

Sunny.


Feels Like: 72 °F
Forecast: 69 / 86 °F
Wind: No wind

Location: Sikorsky Memorial Airport

Current Time: Jul 31, 2015 at 7:36:52 AM

Latest Report: Jul 31, 2015 at 6:52 AM


Visibility: 10 mi

Pressure: 29.85 "Hg

Humidity: 81%

Dew point: 66 °F

Location of BridgeportLocation

Historic Weather in Bridgeport — Graph

°F

Bridgeport temperature yesterday

Maximum temperature yesterday: 85 °F (at 1:52 PM)
Minimum temperature yesterday: 76 °F (at 5:59 PM)
Average temperature yesterday: 79 °F

Past Weeks' High & Low Weather Summary

 TemperatureHumidityPressure
High92 °F (Jul 20, 3:52 PM)97% (Jul 28, 6:52 AM)30.12 "Hg (Jul 28, 6:52 AM)
Low60 °F (Jul 17, 5:52 AM)31% (Jul 22, 4:52 PM)29.56 "Hg (Jul 21, 6:52 PM)
Average77 °F68%29.90 "Hg
* Reported Jul 16 5:52 AM — Jul 31 5:52 AM, Bridgeport, Weather by CustomWeather, © 2015

Note: Actual official high and low records may vary slightly from our data, if they occured in-between our weather recording intervals... More about our weather records

Advertising

Bridgeport weather history for previous 24 hours

 ConditionsComfort  
Time TempWeatherWind HumidityBarometerVisibility
5:52 AM
Fri, Jul 31
71 °FClear.7 mph84%29.83 "Hg10 mi
4:52 AM71 °FClear.5 mph90%29.82 "Hg10 mi
3:52 AM72 °FClear.5 mph93%29.81 "Hg10 mi
2:52 AM73 °FFog.No wind94%29.81 "Hg3 mi
1:51 AM75 °FFog.3 mph94%29.81 "Hg2 mi
12:52 AM76 °FFog.5 mph94%29.82 "Hg4 mi
11:52 PM
Thu, Jul 30
77 °FFog.7 mph88%29.82 "Hg6 mi
10:52 PM76 °FPassing clouds.6 mph91%29.82 "Hg8 mi
9:52 PM77 °FOvercast.7 mph90%29.83 "Hg10 mi
8:52 PM76 °FPartly sunny.6 mph94%29.81 "Hg10 mi
7:52 PM76 °FScattered clouds.9 mph91%29.80 "Hg10 mi
6:52 PM76 °FScattered clouds.9 mph91%29.81 "Hg10 mi
5:59 PM76 °FHeavy rain. Fog.10 mph91%29.82 "Hg1 mi
4:52 PM79 °FBroken clouds.9 mph82%29.80 "Hg9 mi
3:52 PM84 °FPassing clouds.18 mph72%29.79 "Hg10 mi
2:52 PM85 °FPassing clouds.14 mph70%29.82 "Hg10 mi
1:52 PM85 °FPassing clouds.13 mph72%29.84 "Hg10 mi
12:52 PM84 °FOvercast.13 mph72%29.87 "Hg10 mi
11:52 AM84 °FPartly sunny.14 mph70%29.88 "Hg10 mi
10:52 AM82 °FMostly cloudy.10 mph74%29.88 "Hg10 mi
9:52 AM81 °FScattered clouds.12 mph74%29.89 "Hg10 mi
8:52 AM80 °FSunny.9 mph79%29.90 "Hg10 mi
7:52 AM78 °FBroken clouds.7 mph84%29.91 "Hg7 mi
Weather by CustomWeather, © 2015

See weather overviewHow to use our weather pages